Weather in Talmenka

Russia / Novosibirsk Oblast     54°42′33″N   83°16′43″E
temp.,
°C
wind,
m/s
gust,
m/s
humid.,
%
clouds,
%
prec.,
mm/h
press.,
hPa
HPBL,
m
13 may, thu
thu1301:00+11se11465 0.0 101410
04:00+10ssw11496 0.0 101310
07:00+10sw2250100 0.0 101436
10:00+14w2239100 0.0 1013358
13:00+17wnw3336100 0.0 10131181
16:00+17wnw4538100 0.0 10131016
19:00+15wnw456098 0.0 1013627
22:00+10nw4782100 0.3 1015226
14 may, fri
fri1401:00+9n379149 0.4 1016186
04:00+9n3885100 0.0 1016353
07:00+8n38836 0.0 1018290
10:00+11nnw566057 0.0 1020752
13:00+14nw6745100 0.0 10201480
16:00+15nnw5727100 0.0 10211566
19:00+14nw463278 0.0 10221295
22:00+10nw224276 0.0 102312
15 may, sat
sat1501:00+10wnw3846100 0.0 1024242
04:00+9sw485476 0.0 1023152
07:00+11wsw5124862 0.0 1023347
10:00+12wsw61247100 0.0 1022454
13:00+18wsw8124290 0.0 1020683
16:00+21wsw7104799 0.0 10181022
19:00+20sw7124513 0.0 1017799
22:00+17ssw6154673 0.0 1015338
16 may, sun
sun1601:00+15sw6146195 0.7 1014285
04:00+13wsw51079100 0.2 1014208
07:00+13w41081100 0.3 1014282
10:00+19w46625 0.0 1014382
13:00+24wsw594398 0.0 10131319
16:00+24wnw694143 0.0 10121871
19:00+20n686552 0.2 10141144
22:00+13nne48809 0.1 1017373
17 may, mon
mon1701:00+14ne3572100 0.1 1018436
04:00+11e118897 0.0 101810
07:00+12sw118176 0.0 101980
10:00+15ssw23679 0.0 1018369
13:00+20wsw58547 0.0 1016696
16:00+23wsw58485 0.0 1013915
19:00+22wsw48496 0.1 1011284
22:00+19sw410535 0.0 1010126